星链-30605 (STARLINK-30605 )

导读 | 星芒AI

STARLINK-30605 是 SpaceX Starlink 项目中的一颗低轨通信卫星,属于第三代星链卫星(v1.5)。它于2023年发射,部署在约550公里高的近地轨道,旨在为全球用户提供高速互联网服务。该卫星采用先进推进系统和激光通信技术,提升网络效率与稳定性。作为星链星座的一部分,STARLINK-30605 支持宽带接入,尤其服务于偏远地区,助力实现全球互联网覆盖目标。

基本信息
目录编号:
58101
目录名称:
STARLINK-30605
国际标识:
2023-161E
轨道中心:
EARTH
卫星名称:
星链-30605
卫星全名:
星链-30605 (STARLINK-30605 )
卫星状态:
在轨 (已飞行791 天)
发射日期:
2023-10-21 UTC
国别 :
美国 (US)
星等 :
--
轨道信息
数据来源 国际轨道数据 AOE轨道数据
星历时间 2025-12-19T19:39:49+0800
21小时前
查看轨道信息
2025-12-20T09:00:00+0800
8小时前
查看轨道信息
半长轴 6853.383km 6853.339km
偏心率 0.0001161 0.0001256
轨道倾角 53.160° 53.158°
近地点辐角 98.656° 93.940°
升交点赤经 177.962° 175.384°
平近点角 261.457° 89.000°
近地点 474.45km 474.341km
远地点 476.042km 476.063km
周期 94.106分钟 94.105分钟
每日圈数 15.301898 15.302044
详细信息
固有亮度:
5
最大亮度:
0.3
卫星平台:
Starlink v2.0 mini
覆盖范围:
全球
运营商:
太空探索技术公司
运营商所在国:
美国
制造商(研发单位):
太空探索技术公司
制造商所在国:
美国
使用方式:
暂无
卫星简介
星链(Starlink)计划是由太空探索技术公司(SpaceX)提出的一个巨型低轨卫星互联网星座项目,计划在2019年至2024年间在太空搭建由约1.2万颗卫星组成的“星链”网络,其中1584颗将部署在地球上空550千米处的近地轨道,并从2020年开始工作。该卫星仍在工作。
2D轨道图
3D轨道图
轨道高度分析图
轨道倾角分析图
轨道综合分析图
查看轨道综合分析图